Michigan City, IN

12:02 AM CDT on April 29, 2017 (GMT -0500)
Michigan City Municipal

Weather History for KMGC - October, 2013

Change the Weather History Date:

Monday, October 21, 2013

  Actual Average (KSBN) Record (KSBN)
Temperature  
Mean Temperature 47 °F -  
Max Temperature 53 °F 58 °F 85 °F (1953)
Min Temperature 41 °F 42 °F 22 °F (1895)
Degree Days  
Heating Degree Days 18    
Moisture  
Dew Point 36 °F    
Average Humidity 67    
Maximum Humidity 93    
Minimum Humidity 49    
Precipitation  
Precipitation 0.00 in - - ()
Sea Level Pressure  
Sea Level Pressure 29.90 in    
Wind  
Wind Speed 9 mph (WSW)    
Max Wind Speed 17 mph    
Max Gust Speed 28 mph    
Visibility 10 miles    
Events Rain    
Averages and records for this station are not official NWS values.
T = Trace of Precipitation, MM = Missing Value Source: NWS Daily Summary

Daily Weather History Graph

Daily Weather History Graph

Search for Another Location

Airport or City:

Trip Planner

Search our weather history database for the weather conditions in past years. The results will help you decide how hot, cold, wet, or windy it might be!

Date:

Astronomy

Oct. 21, 2013 Rise Set
Actual Time 7:06 AM CDT 5:56 PM CDT
Civil Twilight 6:38 AM CDT 6:24 PM CDT
Nautical Twilight 6:05 AM CDT 6:57 PM CDT
Astronomical Twilight 5:33 AM CDT 7:29 PM CDT
Moon 7:46 PM CDT (10/21) 9:43 AM CDT (10/21)
Length of Visible Light 11h 46m
Length of Day
10h 49m
Waning Gibbous, 92% of the Moon is Illuminated
Oct 21
Waning Gibbous
Oct 26
Last Quarter
Nov 3
New
Nov 9
First Quarter
Nov 17
Full

Hourly Weather History & Observations

Time (CDT) Temp. Windchill Dew Point Humidity Pressure Visibility Wind Dir Wind Speed Gust Speed Precip Events Conditions
12:15 AM 53.6 °F - 41.0 °F 62% 29.82 in 10.0 mi SSW 12.7 mph 16.1 mph N/A   Scattered Clouds
12:35 AM 53.6 °F - 41.0 °F 62% 29.82 in 10.0 mi SW 12.7 mph - N/A   Mostly Cloudy
12:55 AM 53.6 °F - 41.0 °F 62% 29.82 in 10.0 mi SW 11.5 mph 17.3 mph N/A   Scattered Clouds
1:15 AM 53.6 °F - 41.0 °F 62% 29.82 in 10.0 mi SW 10.4 mph - N/A   Mostly Cloudy
1:35 AM 53.6 °F - 41.0 °F 62% 29.83 in 10.0 mi SSW 8.1 mph - N/A   Overcast
1:55 AM 53.6 °F - 41.0 °F 62% 29.83 in 10.0 mi SSW 9.2 mph - N/A   Overcast
2:15 AM 53.6 °F - 41.0 °F 62% 29.83 in 10.0 mi SSW 9.2 mph - N/A   Overcast
2:35 AM 53.6 °F - 41.0 °F 62% 29.83 in 10.0 mi SSW 8.1 mph - N/A   Overcast
2:55 AM 53.6 °F - 41.0 °F 62% 29.83 in 10.0 mi SSW 8.1 mph - N/A Rain Light Rain
3:15 AM 51.8 °F - 42.8 °F 71% 29.83 in 10.0 mi SSW 8.1 mph - N/A   Drizzle
3:35 AM 51.8 °F - 44.6 °F 76% 29.83 in 10.0 mi SSW 6.9 mph - N/A   Drizzle
3:55 AM 50.0 °F - 44.6 °F 82% 29.84 in 10.0 mi SSW 4.6 mph - N/A Rain Light Rain
4:15 AM 50.0 °F - 44.6 °F 82% 29.84 in 10.0 mi SSW 4.6 mph - N/A   Drizzle
4:35 AM 50.0 °F - 46.4 °F 87% 29.85 in 10.0 mi SW 5.8 mph - N/A   Drizzle
4:55 AM 50.0 °F - 46.4 °F 87% 29.85 in 10.0 mi SSW 5.8 mph - N/A   Drizzle
5:15 AM 50.0 °F - 46.4 °F 87% 29.85 in 10.0 mi SW 5.8 mph - N/A Rain Light Rain
5:35 AM 50.0 °F - 46.4 °F 87% 29.85 in 10.0 mi SW 6.9 mph - N/A Rain Light Rain
5:55 AM 50.0 °F - 46.4 °F 87% 29.85 in 7.0 mi SW 5.8 mph - N/A Rain Rain
6:15 AM 50.0 °F - 46.4 °F 87% 29.85 in 10.0 mi SW 5.8 mph - N/A Rain Light Rain
6:35 AM 48.2 °F - 46.4 °F 93% 29.86 in 10.0 mi SW 5.8 mph - N/A Rain Light Rain
6:55 AM 48.2 °F - 46.4 °F 93% 29.86 in 10.0 mi SSW 4.6 mph - N/A   Overcast
7:15 AM 48.2 °F - 46.4 °F 93% 29.86 in 10.0 mi SSW 5.8 mph - N/A   Overcast
7:35 AM 48.2 °F - 46.4 °F 93% 29.87 in 10.0 mi SSW 6.9 mph - N/A   Overcast
7:55 AM 48.2 °F - 46.4 °F 93% 29.87 in 10.0 mi SW 5.8 mph - N/A   Mostly Cloudy
8:15 AM 48.2 °F - 46.4 °F 93% 29.89 in 10.0 mi WSW 5.8 mph - N/A   Mostly Cloudy
8:35 AM 48.2 °F - 42.8 °F 82% 29.89 in 10.0 mi West 8.1 mph - N/A   Overcast
8:55 AM 46.4 °F 42.9 °F 42.8 °F 87% 29.89 in 10.0 mi WSW 6.9 mph - N/A   Overcast
9:15 AM 46.4 °F 42.4 °F 42.8 °F 87% 29.90 in 10.0 mi WSW 8.1 mph - N/A   Overcast
9:35 AM 46.4 °F 42.4 °F 42.8 °F 87% 29.91 in 10.0 mi WSW 8.1 mph - N/A   Overcast
9:55 AM 46.4 °F 41.9 °F 42.8 °F 87% 29.91 in 10.0 mi SW 9.2 mph - N/A   Overcast
10:15 AM 46.4 °F 42.4 °F 41.0 °F 81% 29.92 in 10.0 mi WSW 8.1 mph - N/A   Overcast
10:35 AM 46.4 °F 41.9 °F 39.2 °F 76% 29.92 in 10.0 mi West 9.2 mph 18.4 mph N/A   Overcast
10:55 AM 46.4 °F 41.9 °F 37.4 °F 71% 29.92 in 10.0 mi West 9.2 mph - N/A   Overcast
11:15 AM 46.4 °F 41.9 °F 37.4 °F 71% 29.92 in 10.0 mi West 9.2 mph - N/A   Overcast
11:35 AM 46.4 °F 42.9 °F 37.4 °F 71% 29.92 in 10.0 mi West 6.9 mph 17.3 mph N/A   Overcast
11:55 AM 46.4 °F 41.5 °F 37.4 °F 71% 29.92 in 10.0 mi West 10.4 mph 17.3 mph N/A   Overcast
12:15 PM 44.6 °F 39.2 °F 35.6 °F 71% 29.92 in 10.0 mi WNW 10.4 mph 19.6 mph N/A   Overcast
12:35 PM 44.6 °F 39.2 °F 35.6 °F 71% 29.92 in 10.0 mi West 10.4 mph 16.1 mph N/A   Overcast
12:55 PM 44.6 °F 40.7 °F 33.8 °F 66% 29.92 in 10.0 mi West 6.9 mph 19.6 mph N/A   Overcast
1:15 PM 44.6 °F 38.4 °F 33.8 °F 66% 29.91 in 10.0 mi West 12.7 mph 19.6 mph N/A   Overcast
1:35 PM 44.6 °F 38.4 °F 32.0 °F 61% 29.91 in 10.0 mi WNW 12.7 mph 17.3 mph N/A   Overcast
1:55 PM 44.6 °F 40.7 °F 33.8 °F 66% 29.91 in 10.0 mi West 6.9 mph - N/A   Mostly Cloudy
2:15 PM 46.4 °F 41.1 °F 33.8 °F 62% 29.91 in 10.0 mi West 11.5 mph 16.1 mph N/A   Mostly Cloudy
2:35 PM 44.6 °F 38.8 °F 32.0 °F 61% 29.90 in 10.0 mi WSW 11.5 mph - N/A   Overcast
2:55 PM 44.6 °F 40.2 °F 33.8 °F 66% 29.91 in 10.0 mi WSW 8.1 mph - N/A   Overcast
3:15 PM 46.4 °F 41.1 °F 32.0 °F 57% 29.90 in 10.0 mi WSW 11.5 mph 16.1 mph N/A   Overcast
3:35 PM 46.4 °F 42.9 °F 32.0 °F 57% 29.90 in 10.0 mi West 6.9 mph 16.1 mph N/A   Overcast
3:55 PM 46.4 °F 42.4 °F 32.0 °F 57% 29.90 in 10.0 mi WSW 8.1 mph 17.3 mph N/A   Overcast
4:15 PM 46.4 °F 42.9 °F 32.0 °F 57% 29.89 in 10.0 mi WSW 6.9 mph - N/A   Overcast
4:35 PM 46.4 °F 42.9 °F 32.0 °F 57% 29.89 in 10.0 mi WSW 6.9 mph - N/A   Overcast
4:55 PM 46.4 °F 40.7 °F 30.2 °F 53% 29.90 in 10.0 mi WSW 12.7 mph 18.4 mph N/A   Overcast
5:15 PM 46.4 °F 41.5 °F 28.4 °F 50% 29.91 in 10.0 mi West 10.4 mph 19.6 mph N/A   Overcast
5:35 PM 44.6 °F 39.7 °F 28.4 °F 53% 29.92 in 10.0 mi West 9.2 mph - N/A   Overcast
5:55 PM 44.6 °F 38.1 °F 28.4 °F 53% 29.92 in 10.0 mi West 13.8 mph 24.2 mph N/A   Overcast
6:15 PM 42.8 °F 36.6 °F 26.6 °F 53% 29.94 in 10.0 mi WSW 11.5 mph 19.6 mph N/A   Mostly Cloudy
6:35 PM 42.8 °F 36.6 °F 26.6 °F 53% 29.94 in 10.0 mi WSW 11.5 mph 20.7 mph N/A   Scattered Clouds
6:55 PM 42.8 °F 36.6 °F 26.6 °F 53% 29.94 in 10.0 mi WSW 11.5 mph - N/A   Mostly Cloudy
7:15 PM 41.0 °F 34.7 °F 24.8 °F 53% 29.95 in 10.0 mi WSW 10.4 mph 17.3 mph N/A   Scattered Clouds
7:35 PM 42.8 °F 37.5 °F 26.6 °F 53% 29.95 in 10.0 mi West 9.2 mph 20.7 mph N/A   Mostly Cloudy
7:55 PM 42.8 °F 35.8 °F 28.4 °F 57% 29.95 in 10.0 mi WNW 13.8 mph 18.4 mph N/A   Overcast
8:15 PM 41.0 °F 35.2 °F 24.8 °F 53% 29.96 in 10.0 mi WNW 9.2 mph 27.6 mph N/A   Overcast
8:35 PM 41.0 °F 33.1 °F 24.8 °F 53% 29.96 in 10.0 mi West 15.0 mph 23.0 mph N/A   Overcast
8:55 PM 41.0 °F 34.3 °F 24.8 °F 53% 29.96 in 10.0 mi West 11.5 mph 18.4 mph N/A   Overcast
9:15 PM 41.0 °F 33.9 °F 24.8 °F 53% 29.97 in 10.0 mi WNW 12.7 mph 20.7 mph N/A   Overcast
9:35 PM 41.0 °F 32.5 °F 23.0 °F 49% 29.97 in 10.0 mi WNW 17.3 mph 25.3 mph N/A   Mostly Cloudy
9:55 PM 41.0 °F 33.1 °F 24.8 °F 53% 29.97 in 10.0 mi WNW 15.0 mph 20.7 mph N/A   Scattered Clouds
10:15 PM 41.0 °F 35.2 °F 23.0 °F 49% 29.97 in 10.0 mi WNW 9.2 mph 19.6 mph N/A   Mostly Cloudy
10:35 PM 41.0 °F 33.9 °F 23.0 °F 49% 29.97 in 10.0 mi WNW 12.7 mph 19.6 mph N/A   Overcast
10:55 PM 41.0 °F 33.9 °F 23.0 °F 49% 29.97 in 10.0 mi WNW 12.7 mph 18.4 mph N/A   Mostly Cloudy
11:15 PM 41.0 °F 35.2 °F 23.0 °F 49% 29.97 in 10.0 mi WNW 9.2 mph 20.7 mph N/A   Mostly Cloudy
11:35 PM 41.0 °F 35.2 °F 24.8 °F 53% 29.96 in 10.0 mi WNW 9.2 mph 20.7 mph N/A   Mostly Cloudy
11:55 PM 41.0 °F 33.1 °F 24.8 °F 53% 29.96 in 10.0 mi WNW 15.0 mph 23.0 mph N/A   Scattered Clouds